SCP
0 0 0 0 0 0 0 0 0 0 0 0 0 0 0 0 0 0 0 0 0 0 0 0 0 0 0
0 0 0 0 0 0 0 0 0 0 0 0 0 0 0 0 0 0 0 0 0 0 0 0 0 0 0
0 0 0 0 0 0 0 0 0 0 0 0 0 0 0 0 0 0 0 0 0 0 0 0 0 0 0
0 0 0 0 0 0 0 0 0 0 0 0 0 0 0 0 0 0 0 0 0 0 0 0 0 0 0
0 0 0 0 0 0 0 0 0 0 0 0 0 0 0 0 0 0 0 0 0 0 0 0 0 0 0
0 0 0 0 0 0 0 0 0 0 0 0 0 0 0 0 0 0 0 0 0 0 0 0 0 0 0
0 0 -0 0 0 0 0 0 0 0 0 0 0 0 0 0 0 0 0 0 0 0 0 0 0 0 0
0 0 -0 -0 -0 0 0 0 0 0 0 0 0 0 0 0 0 0 0 0 0 0 0 0 0 0 0
0 0 0 0 0 0 0 0 0 0 0 0 0 0 0 0 0 0 0 0 0 0 0 0 0 0 0
0 0 0 0 0 0 0 0 0 0 0 0 0 0 0 0 0 0 0 0 0 0 0 0 0 0 0
0 0 0 0 0 0 0 0 0 0 0 0 0 0 0 0 0 0 0 0 0 0 0 0 0 0 0
0 0 0 0 0 0 0 0 0 0 0 0 0 1 0 0 0 0 0 0 0 0 0 0 0 0 0
0 0 0 0 0 0 0 0 0 0 0 0 0 0 0 0 0 0 0 0 0 0 0 0 0 0 0
0 0 0 0 0 0 0 0 0 0 0 0 0 0 0 0 0 0 0 0 0 0 0 0 0 0 0
0 0 0 0 0 0 0 0 0 0 0 0 0 0 0 0 0 0 0 0 0 0 0 0 0 0 0
0 0 0 0 0 0 0 0 0 0 0 0 0 0 0 0 0 0 0 0 0 0 0 0 0 0 0
Wind_Speed_500mb
29 36 38 42 44 42 48 49 53 57 59 58 54 49 48 47 45 41 38 41 46 48 45 45 43 40 37
15 22 30 30 36 51 48 52 52 52 57 58 54 52 50 49 46 42 42 49 54 51 48 48 42 40 37
15 13 16 21 30 34 41 54 54 55 55 57 54 52 50 50 47 42 45 52 56 56 51 53 47 43 40
14 17 17 17 16 20 36 47 50 56 61 63 62 55 51 51 48 43 46 53 54 55 57 55 52 46 41
34 23 25 24 22 19 18 24 38 52 58 57 53 50 52 54 52 48 48 55 60 58 60 57 54 48 44
45 33 35 34 31 26 24 21 23 23 29 44 53 57 57 61 62 60 58 60 60 56 56 55 55 50 46
43 61 51 44 42 38 32 30 26 24 26 33 52 71 69 66 70 68 63 63 64 59 55 54 54 51 47
37 36 54 49 44 44 43 39 37 31 27 32 36 50 81 75 72 74 66 67 67 62 58 57 53 51 49
37 35 36 42 39 40 42 44 43 40 33 23 28 46 66 71 61 74 72 70 70 65 58 61 55 52 50
38 37 36 35 36 32 37 39 41 42 37 32 32 37 56 60 79 84 80 72 70 69 64 55 52 50 49
37 34 31 34 35 32 34 36 39 38 40 40 46 49 53 70 62 71 72 78 73 70 59 51 46 46 45
35 33 28 29 30 33 36 39 37 34 38 41 46 49 62 63 67 57 54 64 80 70 55 46 49 52 50
31 33 33 35 35 38 39 36 35 34 37 37 48 47 47 43 53 46 45 49 63 69 64 48 49 56 56
23 31 35 36 34 38 37 36 39 38 38 39 43 59 55 56 55 43 45 42 38 57 61 66 49 35 48
22 26 30 33 34 35 37 39 39 39 40 41 41 52 54 52 57 52 53 53 63 75 85 54 40 27 39
16 22 27 31 34 33 37 41 38 36 38 40 47 46 54 54 49 53 51 58 73 78 84 73 41 29 27
Wind_Direction_500mb
219 222 225 225 219 219 215 219 222 225 224 220 217 221 225 227 224 222 214 195 188 182 182 178 174 171 171
282 223 220 220 225 224 222 219 221 227 228 225 224 227 228 226 224 225 210 194 188 183 186 181 181 181 179
303 296 264 250 247 238 233 228 226 228 230 233 229 228 225 225 223 222 206 195 189 188 191 186 188 190 184
258 276 276 265 256 255 248 231 237 236 234 231 228 225 223 221 220 217 205 197 191 193 190 190 194 192 192
270 277 276 277 272 269 258 246 242 240 246 250 213 226 224 219 216 214 207 203 201 198 194 195 195 196 197
260 286 286 281 273 264 262 265 255 232 252 258 217 221 227 219 217 214 207 209 208 205 203 200 200 201 201
274 263 275 281 274 268 260 256 256 255 235 233 240 229 223 221 221 218 212 209 210 208 206 207 207 208 209
250 251 262 267 263 262 260 257 254 254 246 228 232 241 220 211 220 225 220 213 211 211 209 209 212 214 216
231 231 227 249 258 251 251 255 255 249 245 225 235 225 231 213 222 228 230 219 214 214 216 219 215 216 219
228 220 232 242 252 252 250 251 256 249 242 216 210 225 220 224 233 224 224 226 222 217 213 213 215 218 220
225 232 238 254 256 258 255 248 252 247 238 232 212 214 224 226 223 228 226 225 226 222 218 223 228 226 221
225 230 237 238 253 259 259 251 248 246 236 240 220 223 219 228 226 228 222 232 224 222 214 218 215 213 214
223 225 238 245 253 259 260 259 255 251 236 233 218 219 220 209 220 229 231 228 224 226 208 200 226 222 216
222 222 236 251 261 266 263 257 253 249 232 227 229 225 226 216 216 216 208 193 226 211 191 207 202 206 208
223 227 236 253 263 270 261 256 254 246 233 227 225 228 232 222 223 218 217 206 205 210 210 191 189 207 182
227 229 240 255 264 268 265 259 252 242 234 228 225 237 227 225 221 213 221 226 229 207 198 204 205 215 184
Wind_Speed_850mb
29 36 38 42 44 42 48 49 53 57 59 58 54 49 48 47 45 41 38 41 46 48 45 45 43 40 37
15 22 30 30 36 51 48 52 52 52 57 58 54 52 50 49 46 42 42 49 54 51 48 48 42 40 37
15 13 16 21 30 34 41 54 54 55 55 57 54 52 50 50 47 42 45 52 56 56 51 53 47 43 40
14 17 17 17 16 20 36 47 50 56 61 63 62 55 51 51 48 43 46 53 54 55 57 55 52 46 41
34 23 25 24 22 19 18 24 38 52 58 57 53 50 52 54 52 48 48 55 60 58 60 57 54 48 44
45 33 35 34 31 26 24 21 23 23 29 44 53 57 57 61 62 60 58 60 60 56 56 55 55 50 46
43 61 51 44 42 38 32 30 26 24 26 33 52 71 69 66 70 68 63 63 64 59 55 54 54 51 47
37 36 54 49 44 44 43 39 37 31 27 32 36 50 81 75 72 74 66 67 67 62 58 57 53 51 49
37 35 36 42 39 40 42 44 43 40 33 23 28 46 66 71 61 74 72 70 70 65 58 61 55 52 50
38 37 36 35 36 32 37 39 41 42 37 32 32 37 56 60 79 84 80 72 70 69 64 55 52 50 49
37 34 31 34 35 32 34 36 39 38 40 40 46 49 53 70 62 71 72 78 73 70 59 51 46 46 45
35 33 28 29 30 33 36 39 37 34 38 41 46 49 62 63 67 57 54 64 80 70 55 46 49 52 50
31 33 33 35 35 38 39 36 35 34 37 37 48 47 47 43 53 46 45 49 63 69 64 48 49 56 56
23 31 35 36 34 38 37 36 39 38 38 39 43 59 55 56 55 43 45 42 38 57 61 66 49 35 48
22 26 30 33 34 35 37 39 39 39 40 41 41 52 54 52 57 52 53 53 63 75 85 54 40 27 39
16 22 27 31 34 33 37 41 38 36 38 40 47 46 54 54 49 53 51 58 73 78 84 73 41 29 27
Wind_Direction_850mb
219 222 225 225 219 219 215 219 222 225 224 220 217 221 225 227 224 222 214 195 188 182 182 178 174 171 171
282 223 220 220 225 224 222 219 221 227 228 225 224 227 228 226 224 225 210 194 188 183 186 181 181 181 179
303 296 264 250 247 238 233 228 226 228 230 233 229 228 225 225 223 222 206 195 189 188 191 186 188 190 184
258 276 276 265 256 255 248 231 237 236 234 231 228 225 223 221 220 217 205 197 191 193 190 190 194 192 192
270 277 276 277 272 269 258 246 242 240 246 250 213 226 224 219 216 214 207 203 201 198 194 195 195 196 197
260 286 286 281 273 264 262 265 255 232 252 258 217 221 227 219 217 214 207 209 208 205 203 200 200 201 201
274 263 275 281 274 268 260 256 256 255 235 233 240 229 223 221 221 218 212 209 210 208 206 207 207 208 209
250 251 262 267 263 262 260 257 254 254 246 228 232 241 220 211 220 225 220 213 211 211 209 209 212 214 216
231 231 227 249 258 251 251 255 255 249 245 225 235 225 231 213 222 228 230 219 214 214 216 219 215 216 219
228 220 232 242 252 252 250 251 256 249 242 216 210 225 220 224 233 224 224 226 222 217 213 213 215 218 220
225 232 238 254 256 258 255 248 252 247 238 232 212 214 224 226 223 228 226 225 226 222 218 223 228 226 221
225 230 237 238 253 259 259 251 248 246 236 240 220 223 219 228 226 228 222 232 224 222 214 218 215 213 214
223 225 238 245 253 259 260 259 255 251 236 233 218 219 220 209 220 229 231 228 224 226 208 200 226 222 216
222 222 236 251 261 266 263 257 253 249 232 227 229 225 226 216 216 216 208 193 226 211 191 207 202 206 208
223 227 236 253 263 270 261 256 254 246 233 227 225 228 232 222 223 218 217 206 205 210 210 191 189 207 182
227 229 240 255 264 268 265 259 252 242 234 228 225 237 227 225 221 213 221 226 229 207 198 204 205 215 184